Regional Weather Roundup
Issued by NWS

Home | Current Version | Previous Version | Graphics & Text | Print | Product List | Glossary On
Versions: 1 2 3 4 5 6 7 8 9 10 11 12 13 14 15 16 17 18 19 20 21 22 23 24 25 26 27 28 29 30 31 32 33 34 35 36 37 38 39 40 41 42 43 44 45 46 47 48 49 50
000
ASUS43 KIND 280009
RWRIN

WEATHER ROUNDUP FOR INDIANA
NATIONAL WEATHER SERVICE INDIANAPOLIS IN
700 PM EST THU NOV 27 2014

NOTE: "FAIR" INDICATES FEW OR NO CLOUDS BELOW 12,000 FEET WITH NO
SIGNIFICANT WEATHER AND/OR OBSTRUCTIONS TO VISIBILITY.

* - STATION DOES NOT REPORT WEATHER SUCH AS PRECIPITATION OR FOG.

+ - STATION NOT QUALITY CONTROLLED BY THE NATIONAL WEATHER SERVICE.
    USE DATA WITH CAUTION...ESPECIALLY DEWPOINT AND RELATIVE
    HUMIDITY OBSERVATIONS.

INZ001>003-010>013-019-020-280100-
NORTHWEST INDIANA

CITY           SKY/WX    TMP DP  RH WIND       PRES   REMARKS
GARY /AIRPORT/ CLOUDY    27  14  59 W8        30.40R WCI  18
KNOX *+        CLOUDY    24  19  83 W12       30.37R WCI  13
LA PORTE +     FLURRIES  26  19  75 NW7       30.37R WCI  19
6HR MIN TEMP:  26; 6HR MAX TEMP:  31;

MICHIGAN CITY+ FLURRIES  27  16  63 NW7       30.38R WCI  19
MONTICELLO +   CLOUDY    26  17  71 NW12      30.38R WCI  15
RENSSELAER +   FLURRIES  27  21  80 NW7       30.39S WCI  19
VALPARAISO     CLOUDY    23  14  68 W14       30.39R WCI  11
6HR MIN TEMP:  23; 6HR MAX TEMP:  28; 6HR PCP: TRACE;


$$

LMZ046-743>745-280100-
SOUTHERN LAKE MICHIGAN

STATION/POSITION TIME  TEMP WIND        PRES
                       AIR  DIR/SP/G
                 (UTC) (F)  (DEG/KT/KT) (MB)
MICHIGAN CITY    0000   26  260/ 17/ 21   N/A

$$

INZ004-005-014>016-021>024-280100-
NORTH CENTRAL INDIANA

CITY           SKY/WX    TMP DP  RH WIND       PRES   REMARKS
GOSHEN         SNOW      26  24  92 W10       30.32R VSB 1/2 WCI  16
6HR MIN TEMP:  26; 6HR MAX TEMP:  32; 6HR PCP:  0.01;

LOGANSPORT +   FLURRIES  27  19  74 W9        30.38R WCI  17
PERU/GRISSOM   CLOUDY    25  23  89 W15       30.36R WCI  13
6HR MIN TEMP:  25; 6HR MAX TEMP:  29; 6HR PCP: TRACE;

ROCHESTER +    CLOUDY    28  23  80 NW10      30.36R WCI  19
SOUTH BEND     FLURRIES  26  19  74 W14       30.35R WCI  14
6HR MIN TEMP:  26; 6HR MAX TEMP:  31; 6HR PCP:  0.01;

WARSAW +       CLOUDY    27  21  80 W10G16    30.33R WCI  17

$$

INZ006>009-017-018-025>027-280100-
NORTHEAST INDIANA

CITY           SKY/WX    TMP DP  RH WIND       PRES   REMARKS
ANGOLA *+      CLOUDY    27  19  74 NW12      30.28R WCI  16
AUBURN +       FLURRIES  28  25  86 W12G21    30.31R WCI  18
FORT WAYNE     FLURRIES  27  22  81 W17       30.33R WCI  14
6HR MIN TEMP:  27; 6HR MAX TEMP:  32; 6HR PCP: TRACE;

HUNTINGTON +   FLURRIES  26  23  87 W8        30.34R WCI  18
6HR MIN TEMP:  26; 6HR MAX TEMP:  30;


$$

INZ028-029-035-036-043>045-051>053-280100-
WEST CENTRAL INDIANA

CITY           SKY/WX    TMP DP  RH WIND       PRES   REMARKS
GREENCASTLE +  LGT SNOW  27  23  86 W3        30.40R
LAFAYETTE      CLOUDY    24  21  88 NW6       30.40R WCI  17
6HR MIN TEMP:  24; 6HR MAX TEMP:  27; 6HR PCP: TRACE;

TERRE HAUTE    CLOUDY    27  21  78 W10       30.43R WCI  17
6HR MIN TEMP:  27; 6HR MAX TEMP:  29; 6HR PCP: TRACE;


$$

INZ030>032-037>040-046>048-054>057-064-065-280100-
CENTRAL INDIANA

CITY           SKY/WX    TMP DP  RH WIND       PRES   REMARKS
CP ATTERBURY + CLOUDY    30  21  69 NW7       30.40S WCI  23
FRANKFORT +    FLURRIES  26  22  82 W8        30.39R WCI  18
INDIANAPOLIS   FLURRIES  26  20  77 W14       30.38R WCI  14
6HR MIN TEMP:  26; 6HR MAX TEMP:  31; 6HR PCP: TRACE;

-EAGLE CREEK   CLOUDY    27  20  75 NW10      30.38R WCI  17
6HR MIN TEMP:  27; 6HR MAX TEMP:  31; 6HR PCP: TRACE;

KOKOMO *+      CLOUDY    27  18  69 W16       30.37R WCI  14
MARION +       FLURRIES  26  20  81 W16       30.36R WCI  13
MT COMFORT *+  CLOUDY    27  12  54 NW8G16    30.38R WCI  18
SHELBYVILLE    LGT SNOW  28  22  78 NW9       30.38R WCI  19
6HR MIN TEMP:  28; 6HR MAX TEMP:  34; 6HR PCP: TRACE;

ZIONSVILLE +   LGT SNOW  26  20  77 NW6       30.38R WCI  20
6HR MIN TEMP:  26; 6HR MAX TEMP:  32;


$$

INZ033-034-041-042-049-050-058-059-280100-
EAST CENTRAL INDIANA

CITY           SKY/WX    TMP DP  RH WIND       PRES   REMARKS
MUNCIE         FLURRIES  26  20  77 W14G22    30.35R WCI  14
6HR MIN TEMP:  26; 6HR MAX TEMP:  30; 6HR PCP: TRACE;


$$

INZ060-061-067>069-081>083-085>088-280100-
SOUTHWEST INDIANA

CITY           SKY/WX    TMP DP  RH WIND       PRES   REMARKS
EVANSVILLE     MOCLDY    30  21  69 W3        30.47S
6HR MIN TEMP:  30; 6HR MAX TEMP:  32; 6HR PCP: TRACE;

HUNTINGBURG *+ CLOUDY    28  19  69 W8        30.46R WCI  20
6HR MIN TEMP:  28; 6HR MAX TEMP:  32;

WASHINGTON +   CLOUDY    29  21  71 W9        30.45R WCI  21
6HR MIN TEMP:  28; 6HR MAX TEMP:  30;


$$

INZ062-063-066-070>080-084-089>092-280100-
SOUTH CENTRAL AND SOUTHEAST INDIANA

CITY           SKY/WX    TMP DP  RH WIND       PRES   REMARKS
BLOOMINGTON    FLURRIES  27  23  85 W6        30.40R WCI  20
6HR MIN TEMP:  27; 6HR MAX TEMP:  30; 6HR PCP: TRACE;


$$



USA.gov is the U.S. government's official web portal to all federal, state and local government web resources and services.